When you browse on this site, cookies collect data to enhance your experience and personalize the content and advertising you see.
Visit our Privacy Policy to learn more. By continuing to use the site, you agree to this use of cookies and data.
  • In Hungary
  • List of Countries
  • For 7 days
  • Water Temperature
  • Satellite Maps
  • Weather Map
  • News
  • Weather Widgets
  • user-avatar
    Login

    Hourly Weather Desarmes

    Today, 17 February, Sunday

    Time Temperature Precipitation Wind Pressure Humidity
    00:00 +25°C° 0 mm 1 mps 745 mmHg 76%
    01:00 +24°C° 0 mm 2 mps 745 mmHg 79%
    02:00 +24°C° 0 mm 2 mps 745 mmHg 80%
    03:00 +24°C° 0 mm 2 mps 745 mmHg 81%
    04:00 +23°C° 0 mm 2 mps 745 mmHg 82%
    05:00 +24°C° 0 mm 2 mps 745 mmHg 80%
    06:00 +24°C° 0 mm 2 mps 745 mmHg 79%
    07:00 +24°C° 0 mm 2 mps 746 mmHg 77%
    08:00 +27°C° 0 mm 2 mps 746 mmHg 67%
    09:00 +29°C° 0 mm 2 mps 746 mmHg 56%
    10:00 +32°C° 0 mm 2 mps 747 mmHg 46%
    11:00 +34°C° 0 mm 2 mps 747 mmHg 42%
    12:00 +35°C° 0 mm 2 mps 746 mmHg 38%
    13:00 +36°C° 0 mm 2 mps 746 mmHg 34%
    14:00 +35°C° 0 mm 2 mps 746 mmHg 38%
    15:00 +34°C° 0 mm 2 mps 746 mmHg 43%
    16:00 +32°C° 0 mm 2 mps 745 mmHg 47%
    17:00 +31°C° 0.1 mm 2 mps 746 mmHg 52%
    18:00 +30°C° 0.1 mm 1 mps 746 mmHg 57%
    19:00 +29°C° 0.1 mm 1 mps 746 mmHg 62%
    20:00 +28°C° 0 mm 1 mps 746 mmHg 65%
    21:00 +27°C° 0 mm 1 mps 747 mmHg 69%
    22:00 +27°C° 0 mm 1 mps 747 mmHg 73%
    23:00 +26°C° 0 mm 1 mps 747 mmHg 75%

    Tomorrow, 18 February, Monday

    Time Temperature Precipitation Wind Pressure Humidity
    00:00 +26°C° 0 mm 1 mps 747 mmHg 77%
    01:00 +25°C° 0 mm 2 mps 747 mmHg 79%
    02:00 +25°C° 0 mm 2 mps 746 mmHg 79%
    03:00 +24°C° 0 mm 2 mps 746 mmHg 80%
    04:00 +24°C° 0 mm 2 mps 746 mmHg 80%
    05:00 +24°C° 0 mm 2 mps 746 mmHg 80%
    06:00 +24°C° 0 mm 2 mps 746 mmHg 80%
    07:00 +24°C° 0 mm 2 mps 747 mmHg 80%
    08:00 +26°C° 0 mm 2 mps 747 mmHg 70%
    09:00 +29°C° 0 mm 2 mps 748 mmHg 60%
    10:00 +31°C° 0 mm 2 mps 748 mmHg 51%
    11:00 +32°C° 0 mm 2 mps 748 mmHg 46%
    12:00 +34°C° 0 mm 2 mps 748 mmHg 42%
    13:00 +35°C° 0 mm 2 mps 747 mmHg 37%
    14:00 +34°C° 0 mm 2 mps 747 mmHg 42%
    15:00 +32°C° 0 mm 2 mps 746 mmHg 46%
    16:00 +31°C° 0 mm 3 mps 746 mmHg 51%
    17:00 +30°C° 0.1 mm 2 mps 746 mmHg 58%
    18:00 +29°C° 0.1 mm 2 mps 747 mmHg 65%
    19:00 +28°C° 0.1 mm 2 mps 747 mmHg 72%
    20:00 +27°C° 0.1 mm 1 mps 747 mmHg 74%
    21:00 +26°C° 0.1 mm 1 mps 748 mmHg 77%
    22:00 +26°C° 0.1 mm 1 mps 748 mmHg 80%
    23:00 +25°C° 0 mm 1 mps 748 mmHg 81%

    Day after tomorrow, 19 February, Tuesday

    Time Temperature Precipitation Wind Pressure Humidity
    00:00 +25°C° 0 mm 2 mps 747 mmHg 82%
    01:00 +24°C° 0 mm 2 mps 747 mmHg 82%
    02:00 +24°C° 0 mm 2 mps 747 mmHg 83%
    03:00 +23°C° 0 mm 2 mps 747 mmHg 83%
    04:00 +23°C° 0 mm 2 mps 746 mmHg 84%
    05:00 +23°C° 0 mm 2 mps 747 mmHg 83%
    06:00 +23°C° 0 mm 2 mps 747 mmHg 82%
    07:00 +23°C° 0 mm 2 mps 747 mmHg 81%
    08:00 +25°C° 0 mm 2 mps 748 mmHg 70%
    09:00 +28°C° 0 mm 2 mps 748 mmHg 59%
    10:00 +30°C° 0 mm 2 mps 748 mmHg 48%
    11:00 +31°C° 0 mm 2 mps 748 mmHg 42%
    12:00 +34°C° 0 mm 2 mps 747 mmHg 36%
    13:00 +36°C° 0 mm 2 mps 747 mmHg 30%
    14:00 +35°C° 0 mm 2 mps 746 mmHg 31%
    15:00 +35°C° 0 mm 3 mps 746 mmHg 31%
    16:00 +35°C° 0 mm 3 mps 745 mmHg 31%
    17:00 +33°C° 0 mm 3 mps 746 mmHg 39%
    18:00 +29°C° 0 mm 2 mps 746 mmHg 46%
    19:00 +27°C° 0 mm 2 mps 746 mmHg 54%
    20:00 +27°C° 0 mm 2 mps 746 mmHg 57%
    21:00 +26°C° 0 mm 2 mps 747 mmHg 61%
    22:00 +25°C° 0 mm 2 mps 747 mmHg 64%
    23:00 +24°C° 0 mm 2 mps 747 mmHg 68%

    20 February, Wednesday

    Time Temperature Precipitation Wind Pressure Humidity
    00:00 +24°C° 0 mm 2 mps 746 mmHg 71%
    01:00 +23°C° 0 mm 2 mps 746 mmHg 75%
    02:00 +23°C° 0 mm 2 mps 746 mmHg 77%
    03:00 +21°C° 0 mm 2 mps 745 mmHg 79%
    04:00 +21°C° 0 mm 2 mps 745 mmHg 81%
    05:00 +21°C° 0 mm 2 mps 746 mmHg 80%
    06:00 +21°C° 0 mm 2 mps 746 mmHg 80%
    07:00 +21°C° 0 mm 2 mps 746 mmHg 79%
    08:00 +25°C° 0 mm 2 mps 747 mmHg 68%
    09:00 +27°C° 0 mm 3 mps 747 mmHg 56%
    10:00 +30°C° 0 mm 3 mps 748 mmHg 45%
    11:00 +31°C° 0 mm 2 mps 747 mmHg 41%
    12:00 +34°C° 0 mm 2 mps 746 mmHg 37%
    13:00 +35°C° 0 mm 2 mps 746 mmHg 33%
    14:00 +35°C° 0 mm 2 mps 745 mmHg 33%
    15:00 +35°C° 0 mm 2 mps 745 mmHg 33%
    16:00 +35°C° 0 mm 3 mps 744 mmHg 34%
    17:00 +32°C° 0 mm 2 mps 745 mmHg 41%
    18:00 +30°C° 0 mm 2 mps 745 mmHg 49%
    19:00 +28°C° 0 mm 2 mps 745 mmHg 57%
    20:00 +27°C° 0 mm 2 mps 746 mmHg 60%
    21:00 +26°C° 0 mm 2 mps 746 mmHg 63%
    22:00 +25°C° 0 mm 2 mps 747 mmHg 66%
    23:00 +25°C° 0 mm 2 mps 746 mmHg 68%

    21 February, Thursday

    Time Temperature Precipitation Wind Pressure Humidity
    00:00 +24°C° 0 mm 2 mps 746 mmHg 69%
    01:00 +23°C° 0 mm 2 mps 746 mmHg 70%
    02:00 +23°C° 0 mm 2 mps 746 mmHg 73%
    03:00 +23°C° 0 mm 2 mps 745 mmHg 76%
    04:00 +21°C° 0 mm 2 mps 745 mmHg 78%
    05:00 +21°C° 0 mm 2 mps 746 mmHg 78%
    06:00 +23°C° 0 mm 2 mps 746 mmHg 78%
    07:00 +23°C° 0 mm 2 mps 747 mmHg 79%
    08:00 +25°C° 0 mm 2 mps 747 mmHg 68%
    09:00 +28°C° 0 mm 2 mps 748 mmHg 58%
    10:00 +30°C° 0 mm 2 mps 748 mmHg 47%
    11:00 +32°C° 0 mm 2 mps 747 mmHg 42%
    12:00 +34°C° 0 mm 2 mps 747 mmHg 36%
    13:00 +36°C° 0 mm 2 mps 746 mmHg 31%
    14:00 +36°C° 0 mm 2 mps 745 mmHg 31%
    15:00 +36°C° 0 mm 3 mps 745 mmHg 32%
    16:00 +35°C° 0 mm 3 mps 745 mmHg 32%
    17:00 +33°C° 0 mm 3 mps 745 mmHg 40%
    18:00 +30°C° 0 mm 2 mps 745 mmHg 47%
    19:00 +28°C° 0 mm 1 mps 746 mmHg 55%
    20:00 +27°C° 0 mm 1 mps 746 mmHg 59%
    21:00 +26°C° 0 mm 2 mps 746 mmHg 63%
    22:00 +26°C° 0 mm 2 mps 747 mmHg 67%
    23:00 +25°C° 0 mm 2 mps 746 mmHg 70%

    22 February, Friday

    Time Temperature Precipitation Wind Pressure Humidity
    00:00 +24°C° 0 mm 2 mps 746 mmHg 72%
    01:00 +24°C° 0 mm 2 mps 746 mmHg 74%
    02:00 +24°C° 0 mm 2 mps 746 mmHg 75%
    03:00 +23°C° 0 mm 2 mps 746 mmHg 76%
    04:00 +23°C° 0 mm 2 mps 746 mmHg 77%
    05:00 +23°C° 0 mm 2 mps 746 mmHg 76%
    06:00 +23°C° 0 mm 2 mps 747 mmHg 76%
    07:00 +24°C° 0 mm 2 mps 747 mmHg 75%
    08:00 +26°C° 0 mm 2 mps 747 mmHg 66%
    09:00 +29°C° 0 mm 2 mps 748 mmHg 56%
    10:00 +31°C° 0 mm 2 mps 748 mmHg 47%
    11:00 +34°C° 0 mm 3 mps 748 mmHg 41%
    12:00 +35°C° 0 mm 3 mps 747 mmHg 35%
    13:00 +37°C° 0 mm 3 mps 746 mmHg 29%
    14:00 +37°C° 0 mm 3 mps 746 mmHg 30%
    15:00 +36°C° 0 mm 3 mps 746 mmHg 31%
    16:00 +36°C° 0 mm 3 mps 745 mmHg 32%
    17:00 +34°C° 0 mm 3 mps 746 mmHg 41%
    18:00 +30°C° 0 mm 2 mps 746 mmHg 50%
    19:00 +28°C° 0 mm 2 mps 747 mmHg 59%
    20:00 +27°C° 0 mm 2 mps 747 mmHg 62%
    21:00 +27°C° 0 mm 2 mps 747 mmHg 65%
    22:00 +26°C° 0 mm 2 mps 747 mmHg 69%
    23:00 +25°C° 0 mm 2 mps 747 mmHg 70%
    Show more